www.pogodaiklimat.ru

Погода и климат >> Архив погоды >> Австрия >> Айген-им-Энсталь


ПОГОДА в Айген-им-Энсталь

  • Прогноз погоды в Айген-им-Энсталь
  • Монитор погоды в Айген-им-Энсталь

АРХИВ ПОГОДЫ в Айген-им-Энсталь

Время (UTC), дата Ветер
(напр.,м/с)
 
Видим.   Явления Облачность Т
(С)
Тd
(С)
f
(%)
Тe
(С)
Тes
(С)
Комфортность P
(гПа)
Po
(гПа)
Тmin
(С)
Tmax
(С)
R
(мм)
R24
(мм)
S
(см)
13 12.08 СВ 2 н/о н/о +23.4 +18.1 72 +29 +29 душно 1011.0 938.9
14 12.08 З 2 н/о н/о +21.9 +16.0 69 +26 +26 душно 1012.4 939.8
15 12.08 С 2
{5}
40 км слаб. ливневой дождь 9/8 240 м
[Cu Sc Ac trans Ci fib]
+20.2 +18.1 88 +24 +25 комфорт 1012.8 940.1
16 12.08 С 2 н/о н/о +20.8 +16.2 75 +25 +25 комфорт 1013.5 940.5
17 12.08 В 4 н/о н/о +18.9 +15.3 80 +20 +20 1014.2 940.7
18 12.08 С 2
{5}
20 км {ливн. осадки} 9/9 660 м
[Cu Sc]
+17.9 +14.6 81 +18 +18 1014.2 940.7 +25.9 0.7
19 12.08 СВ 2 н/о н/о +17.6 +14.6 83 +18 +18 1014.2 940.4 0.0
20 12.08 С 1 н/о осадки н/о +17.2 +15.4 89 +18 +18 1015.5 941.5 1
21 12.08 С 2 10 км слаб. ливневой дождь 10/10 540 м
[Cu Sc]
+18.0 +13.5 75 +19 +19 1016.3 942.6
22 12.08 С 1 н/о осадки н/о +16.0 +14.6 91 +17 +17 1017.3 942.9 0.6
23 12.08 С 1 н/о ливневой дождь н/о +15.6 +14.5 93 +16 +16 1017.1 942.6 0.2
00 13.08 С 1 10 км слаб. ливневой дождь 9/9 840 м
[Cu Sc]
+15.5 +14.4 93 +16 +16 1017.3 943.0 2
01 13.08 СЗ 1 н/о ливневой дождь {осадки} н/о +15.4 +14.4 94 +16 +16 1018.1 943.4 0.3
02 13.08 штиль 0 н/о ливневой дождь н/о +15.4 +14.2 93 +15 +15 1018.2 943.5 0.2
03 13.08 С 2 10 км слаб. ливневой дождь 8/8 840 м
[Cu Sc]
+15.1 +14.1 94 +15 +15 1018.0 943.5
04 13.08 З 1 н/о ливневой дождь н/о +14.8 +14.2 96 +15 +15 1018.2 943.4 0.3
05 13.08 15 км 9/9 90 м
[Cu Sc]
+14.9 +14.2 96 1018.0 943.5
06 13.08 С 1 15 км {ливн. осадки} 9/9 90 м
[Cu Sc]
+15.1 +14.3 95 +16 +16 1018.5 944.0 +14.7 4
07 13.08 штиль 0 н/о н/о +15.4 +14.0 91 +15 +15 1019.0 944.3
08 13.08 С 1 н/о н/о +15.8 +14.4 91 +16 +16 1019.1 944.5
09 13.08 С 2 15 км в посл. час ливневой дождь 9/9 90 м
[Cu Sc]
+15.4 +13.7 90 +15 +16 1019.3 944.8
10 13.08 СВ 1 н/о н/о +15.9 +13.8 87 +17 +17 1019.2 944.6 0.0
11 13.08 С 1 н/о н/о +15.6 +13.6 88 +16 +16 1019.2 944.5 0.0
12 13.08 С 2 12 км в посл. час ливневой дождь 10/9 360 м
[Cu Sc]
+15.3 +13.4 88 +15 +16 1018.9 944.4 0.5
13 13.08 С 2 н/о в посл. час осадки н/о +15.2 +12.8 86 +15 +15 1019.0 944.2 0.0
14 13.08 В 1 н/о в посл. час осадки н/о +15.1 +13.2 88 +16 +16 1018.9 944.1 0.0
15 13.08 штиль 0 15 км {ливн. осадки} 10/9 450 м
[Cu Sc]
+15.5 +12.5 82 +15 +16 1018.0 943.6
16 13.08 Ю 1 н/о н/о +14.9 +12.4 85 +15 +15 1018.5 943.6 0.0
17 13.08 Ю 1 н/о в посл. час осадки н/о +13.9 +12.7 92 +14 +14 1018.4 943.3 1
18 13.08 С 1 10 км слаб. ливневой дождь 10/9 450 м
[Cu Sc]
+13.8 +12.7 93 +14 +14 1018.3 943.4 +15.9 2
19 13.08 штиль 0 н/о в посл. час осадки н/о +13.4 +12.5 94 +13 +13 1019.3 944.0 0.1
20 13.08 Ю 2 н/о н/о +12.6 +10.7 88 +12 +12 1020.0 944.4 0.0
21 13.08 С 1 10 км {дождь} 9/9 90 м
[Cu Sc]
+12.7 +10.6 87 +13 +13 1019.7 944.4
22 13.08 ЮЗ 5 н/о осадки н/о +12.2 +10.5 89 +10 +10 1020.3 944.6 1
23 13.08 ЮЗ 3 н/о осадки н/о +12.1 +10.2 88 +10 +10 1020.0 944.3 1
00 14.08 ЮЗ 1 10 км дождь {ливн. осадки} 9/9 90 м
[Cu Sc]
+11.9 +10.6 92 +12 +12 1019.5 943.8 2
01 14.08 штиль 0 н/о ливневой дождь н/о +11.8 +10.3 91 +11 +11 1019.9 944.1 0.2
02 14.08 ЮЗ 1 н/о осадки н/о +11.7 +10.5 92 +11 +11 1020.0 944.2 0.7
03 14.08 10 км слаб. дождь 9/9 90 м
[Cu Sc]
+11.5 +10.3 92 1019.6 944.0
04 14.08 З 3 н/о осадки н/о +11.4 +10.2 92 +9 +9 1020.3 944.4 0.3
05 14.08 ЮЗ 2 15 км в посл. час дождь 10/9 210 м
[Cu Sc]
+11.4 +10.2 92 +10 +10 1020.2 944.5
06 14.08 С 2 15 км слаб. морось {дождь} 9/9 240 м
[Cu Sc]
+11.7 +10.1 90 +11 +11 1020.1 944.5 +11.3 4
07 14.08 ЮЗ 1 н/о н/о +12.6 +10.6 88 +13 +13 1020.4 944.8 0.0
08 14.08 З 1 н/о н/о +12.5 +10.3 86 +12 +12 1020.5 944.8
09 14.08 С 2 20 км 8/8 540 м
[Cu Sc]
+13.9 +10.2 78 +13 +16 1019.8 944.8
10 14.08 ЮЗ 2 н/о н/о +13.9 +10.1 78 +13 +13 1020.2 944.9
11 14.08 ЮЗ 3 н/о н/о +15.2 +10.2 72 +15 +15 1019.8 944.9
12 14.08 С 3 20 км {морось} 8/8 750 м
[Cu Sc]
+15.8 +9.3 65 +15 +18 1019.4 944.9 0.0
13 14.08 ЮЗ 3 н/о н/о +17.2 +6.8 50 +17 +17 1019.1 944.6
14 14.08 ЮЗ 3 н/о н/о +18.3 +7.5 49 +19 +19 1018.3 944.2
15 14.08 ЮЗ 4 30 км 5/5 960 м
[Cu med, cong Ac lent]
+18.7 +8.0 50 +19 +21 1017.5 943.8
16 14.08 З 1 н/о н/о +18.2 +8.0 51 +19 +19 1017.5 943.4
17 14.08 СЗ 1 н/о н/о +16.6 +10.6 68 +17 +17 1017.8 943.4
18 14.08 С 1 30 км 3/3 1500 м
[Cu hum Ac trans]
+14.4 +10.1 75 +15 +15 1018.5 943.7 +19.0 0.0
19 14.08 З 2 н/о н/о +12.5 +9.1 80 +12 +12 1020.2 944.5
20 14.08 З 1 н/о н/о +11.0 +8.6 85 +11 +11 1021.0 944.9
21 14.08 15 км 1/0
[Ac lent]
+9.2 +7.8 91 1021.6 945.2
22 14.08 З 1 н/о н/о +8.8 +7.7 93 +8 +8 1022.3 945.5
23 14.08 штиль 0 н/о н/о +7.6 +6.3 91 +7 +7 1022.7 945.5
00 15.08 С 1 15 км 1/0
[Ac lent]
+7.5 +7.0 97 +6 +6 1022.3 945.4
01 15.08 штиль 0 н/о н/о +5.5 +5.4 99 +4 +4 1023.0 945.2
02 15.08 штиль 0 н/о н/о +5.8 +5.5 98 +5 +5 1022.4 944.8
03 15.08 С 1 5000 м туман местами 1/0
[Ac lent]
+5.2 +4.8 97 +4 +4 1022.3 944.7
04 15.08 штиль 0 н/о н/о +4.6 +4.3 98 +3 +3 1022.6 944.6
05 15.08 ЮЗ 2 300 м туман ясно +6.2 +5.9 98 +4 +4 1022.1 944.8
06 15.08 С 1 400 м туман ясно +6.8 +6.6 99 +6 +8 1021.4 944.4 +4.3
07 15.08 З 1 н/о н/о +9.0 +8.7 98 +8 +8 1020.4 943.8
08 15.08 штиль 0 н/о н/о +12.0 +8.4 79 +12 +12 1019.0 943.3
09 15.08 С 1 50 км {туман} 8/0
[Ci sp]
+14.6 +8.8 68 +15 +27 опасность
простуды
1017.0 942.4
10 15.08 штиль 0 н/о н/о +17.1 +8.8 58 +17 +17 1015.8 941.6
11 15.08 штиль 0 н/о н/о +19.3 +10.8 58 +20 +20 1014.4 940.9
12 15.08 ЮЗ 4 50 км 8/1 2000 м
[Cu med, cong Ci sp]
+22.6 +4.8 31 +23 +30 комфорт 1012.7 940.2
13 15.08 ЮЗ 4 н/о н/о +22.9 +7.9 38 +24 +24 комфорт 1012.7 940.1 0.0
14 15.08 ЮЗ 3 н/о н/о +23.0 +5.9 33 +23 +23 комфорт 1012.5 939.9
15 15.08 З 5 30 км осадки на расстоянии {ливн. осадки} 9/4 1500 м
[Cu med, cong Ac cuf]
+20.9 +8.8 46 +22 +23 комфорт 1013.3 940.4
16 15.08 Ю 2 н/о н/о +20.8 +10.2 51 +23 +23 комфорт 1013.4 940.3
17 15.08 С 1 н/о н/о +19.3 +12.2 63 +22 +22 комфорт 1014.3 940.8 0.0
18 15.08 С 1 30 км {ливн. осадки} 9/1 1500 м
[Cu Sc Ac cuf]
+17.0 +11.3 69 +18 +18 1015.0 941.1 +23.6 0.0
19 15.08 ЮЗ 1 н/о н/о +17.2 +11.5 69 +18 +18 1015.9 941.8
20 15.08 штиль 0 н/о ливневой дождь н/о +15.2 +12.8 86 +15 +15 1017.4 942.7 0.5
21 15.08 С 1 20 км в посл. час ливневой дождь 9/9 1140 м
[Cu Sc]
+14.6 +12.9 90 +15 +15 1017.7 943.1
22 15.08 ЮЗ 1 н/о н/о +14.4 +12.9 91 +15 +15 1018.1 943.2
23 15.08 СЗ 1 н/о осадки н/о +14.4 +12.9 91 +15 +15 1018.5 943.5 0.1
00 16.08 С 1 15 км {ливн. осадки} 9/4 240 м
[Cu Sc Ac trans]
+13.6 +13.0 96 +14 +14 1018.5 943.6 0.8
01 16.08 ЮЗ 2 н/о ливневой дождь н/о +13.6 +12.9 96 +13 +13 1019.3 944.1 0.3
02 16.08 З 1 н/о в посл. час осадки н/о +14.1 +11.8 86 +14 +14 1018.9 943.8 0.3
03 16.08 ЮЗ 3 8000 м слаб. ливневой дождь 10/9 300 м
[Cu Sc]
+13.7 +12.0 89 +12 +12 1018.7 943.8
04 16.08 З 2 н/о в посл. час осадки н/о +13.2 +11.9 92 +12 +12 1019.5 944.1 0.4
05 16.08 штиль 0 10 км слаб. ливневой дождь 10/9 360 м
[Cu Sc]
+13.1 +12.0 93 +13 +13 1019.7 944.5
06 16.08 С 1 10 км слаб. ливневой дождь 10/9 90 м
[Cu Sc]
+13.3 +12.6 96 +13 +13 1019.9 944.8 +12.9 4
07 16.08 ЮЗ 2 н/о осадки н/о +13.9 +12.4 91 +13 +13 1020.5 945.2 0.1
08 16.08 штиль 0 н/о н/о +14.8 +12.3 85 +14 +14 1020.2 945.2 0.0
09 16.08 С 1 20 км {ливн. осадки} 9/9 600 м
[Cu Sc]
+15.7 +12.9 83 +16 +18 1019.7 945.2
10 16.08 СЗ 1 н/о н/о +18.2 +10.4 60 +20 +20 1018.9 944.8
11 16.08 З 3 н/о н/о +18.3 +8.8 54 +19 +19 1018.8 944.7 0.0
12 16.08 ЮЗ 4 25 км {ливн. осадки} 5/5 1200 м
[Cu Sc Ci fib]
+18.7 +8.7 52 +19 +24 1017.9 944.2 0.1
13 16.08 ЮЗ 4 н/о н/о +20.3 +9.5 50 +22 +22 комфорт 1017.2 943.7
14 16.08 ЮЗ 2 н/о н/о +20.4 +9.0 48 +22 +22 комфорт 1016.9 943.4
15 16.08 ЮЗ 3 30 км 8/6 1500 м
[Cu Sc Ac lent Ci fib]
+19.4 +9.6 53 +21 +22 комфорт 1016.8 943.3
16 16.08 З 1 н/о н/о +20.4 +10.7 54 +23 +23 комфорт 1016.5 943.1
17 16.08 С 2 н/о н/о +18.5 +11.4 63 +20 +20 1017.0 943.1
18 16.08 С 2 30 км 5/1 1500 м
[Cu hum Ci fib]
+15.8 +10.9 73 +16 +16 1017.6 943.2 +23.6 0.1
19 16.08 С 1 н/о н/о +16.0 +9.7 66 +17 +17 1018.7 944.0
20 16.08 штиль 0 н/о н/о +12.4 +9.6 83 +12 +12 1020.2 944.5
21 16.08 штиль 0 20 км 8/0
[Ci fib]
+10.5 +9.2 92 +10 +10 1020.6 944.7
22 16.08 С 1 н/о н/о +10.5 +9.4 93 +10 +10 1020.7 944.5
23 16.08 штиль 0 н/о н/о +9.5 +9.1 97 +9 +9 1020.9 944.4
00 17.08 С 1 20 км 5/0
[Ci fib]
+9.5 +8.6 94 +9 +9 1020.5 944.2
01 17.08 штиль 0 н/о н/о +8.0 +7.4 96 +7 +7 1021.1 944.2
02 17.08 штиль 0 н/о н/о +6.5 +6.1 97 +5 +5 1020.9 943.6
03 17.08 С 1 10 км местами туман поземный 5/0
[Ci fib]
+7.8 +7.5 98 +7 +7 1020.2 943.5
04 17.08 ЮЗ 1 н/о н/о +7.5 +7.2 98 +6 +6 1020.8 943.8
05 17.08 штиль 0 5000 м туман местами 8/1 150 м
[St Ac lent Ci sp]
+6.8 +6.5 98 +6 +6 1020.8 943.8
06 17.08 штиль 0 8000 м {туман} 9/1 150 м
[St Ac lent Ci fib]
+9.0 +8.4 96 +8 +10 1020.3 944.0 +5.6
07 17.08 ЮЗ 1 н/о н/о +10.0 +8.5 90 +9 +9 1020.4 944.1
08 17.08 ЮЗ 1 н/о н/о +12.5 +9.6 82 +13 +13 1019.3 943.7
09 17.08 С 1 50 км 8/1 2000 м
[Cu hum Ac lent Ci sp]
+14.2 +10.7 79 +15 +22 1018.1 943.3
10 17.08 В 1 н/о н/о +17.7 +11.4 67 +19 +19 1016.8 942.7
11 17.08 СВ 1 н/о н/о +20.4 +12.9 62 +24 +24 комфорт 1015.1 941.8
12 17.08 50 км 5/0
[Ac lent Ci fib]
+22.9 +14.5 59 1017.1 941.2
13 17.08 З 1 н/о н/о +24.7 +10.8 42 +26 +26 жарко 1012.8 940.7
14 17.08 ЮЗ 1 н/о н/о +24.5 +11.2 43 +26 +26 жарко 1013.0 940.8 0.0
15 17.08 С 2 50 км 9/0
[Ac lent Ci fib]
+25.1 +6.8 31 +25 +27 комфорт 1012.3 940.4
16 17.08 З 1 н/о н/о +24.7 +8.0 34 +25 +25 комфорт 1012.4 940.2
17 17.08 С 1 н/о н/о +22.5 +13.9 58 +26 +26 жарко 1013.1 940.5
18 17.08 С 1 50 км 9/0
[Ac trans]
+20.8 +13.6 63 +24 +24 комфорт 1013.2 940.4 +25.7
19 17.08 СЗ 1 н/о н/о +18.9 +13.8 72 +21 +21 комфорт 1014.4 940.9
20 17.08 штиль 0 н/о н/о +18.1 +12.9 72 +18 +18 1014.8 941.0
21 17.08 30 км 9/0
[Ac trans]
+17.5 +13.1 75 1014.7 941.0
22 17.08 штиль 0 н/о н/о +15.1 +12.8 86 +15 +15 1015.7 941.1
23 17.08 ЮЗ 1 н/о н/о +15.5 +12.8 84 +16 +16 1015.8 941.3
00 18.08 штиль 0 н/о н/о +15.4 +13.0 86 +15 +15 1015.8 941.3
01 18.08 ЮЗ 1 н/о н/о +15.3 +12.3 82 +16 +16 1016.0 941.4
02 18.08 З 1 н/о н/о +15.0 +12.4 84 +16 +16 1016.1 941.4
03 18.08 30 км 9/0
[Ac trans]
+14.7 +12.4 86 1015.8 941.3
04 18.08 штиль 0 н/о н/о +14.0 +12.6 91 +14 +14 1016.2 941.3
05 18.08 30 км 9/0
[Ac trans Ci fib]
+14.1 +12.4 89 1016.0 941.4
06 18.08 С 1 30 км 8/0
[Ac trans]
+14.7 +13.4 92 +15 +16 1016.0 941.5 +13.0
07 18.08 З 1 н/о н/о +16.4 +13.7 84 +17 +17 1015.9 941.6
08 18.08 Ю 1 н/о н/о +18.6 +13.0 70 +20 +20 1015.1 941.4
09 18.08 50 км 1/0
[Ac lent]
+21.8 +14.0 61 1013.3 940.8
10 18.08 штиль 0 н/о н/о +23.6 +15.2 59 +26 +26 жарко 1012.3 940.1
11 18.08 ЮВ 1 н/о н/о +25.5 +16.4 57 +29 +29 душно 1011.2 939.5
12 18.08 С 2 50 км 1/1 1500 м
[Cu hum]
+27.6 +16.1 50 +31 +44 душно 1009.6 938.7
13 18.08 СВ 2 н/о н/о +29.5 +17.0 47 +33 +33 душно 1008.7 938.1
14 18.08 СВ 2 н/о н/о +30.2 +15.4 41 +33 +33 душно 1008.4 937.9
15 18.08 С 2 50 км 3/1 1500 м
[Cu hum]
+30.8 +13.9 36 +32 +37 жарко 1007.8 937.7
16 18.08 З 1 н/о н/о +31.1 +13.6 34 +32 +32 жарко 1007.8 937.5
17 18.08 С 1 н/о н/о +28.1 +14.3 43 +30 +30 жарко 1008.6 937.6 0.0
18 18.08 С 1 40 км 1/1 2000 м
[Cu hum]
+23.9 +14.9 57 +27 +27 жарко 1009.4 937.7 +31.4
19 18.08 С 1 н/о н/о +20.1 +14.5 70 +23 +23 комфорт 1011.4 938.4
20 18.08 СВ 1 н/о н/о +18.6 +14.0 75 +20 +20 1012.4 938.9
21 18.08 20 км ясно +16.9 +13.7 81 1012.8 939.1
22 18.08 штиль 0 н/о н/о +17.3 +13.7 79 +17 +17 1013.5 939.6
23 18.08 З 1 н/о н/о +17.3 +13.7 79 +18 +18 1013.5 939.6
00 19.08 20 км ясно +15.3 +13.0 86 1013.6 939.5
01 19.08 ЮЗ 1 н/о н/о +15.7 +13.8 88 +16 +16 1014.1 939.8
02 19.08 ЮЗ 2 н/о н/о +15.9 +13.7 87 +16 +16 1015.1 940.8
03 19.08 20 км 3/0
[Ac trans]
+16.5 +13.4 82 1015.5 941.5
04 19.08 СВ 2 н/о н/о +16.8 +14.0 84 +17 +17 1016.6 942.4
05 19.08 25 км 9/9 750 м
[Cu Sc]
+16.8 +14.1 84 1017.0 943.0
06 19.08 20 км слаб. ливневой дождь 9/9 750 м
[Cu Sc]
+19.0 +13.8 72 1017.3 943.8 +13.9 0.0
07 19.08 З 1 н/о н/о +19.5 +15.0 75 +22 +22 комфорт 1017.8 944.2 0.0
08 19.08 ЮЗ 1 н/о н/о +20.7 +13.9 65 +24 +24 комфорт 1017.5 944.2
09 19.08 ЮЗ 2 40 км 6/6 900 м
[Cu Sc Ac lent]
+21.3 +15.3 69 +24 +29 комфорт 1017.4 944.5
10 19.08 З 1 н/о н/о +21.9 +13.5 59 +25 +25 комфорт 1017.5 944.4
11 19.08 З 1 н/о н/о +23.1 +14.0 57 +27 +27 душно 1016.9 944.2

 

Местоположение метеостанции Айген-им-Энсталь (Австрия): широта 47.53 долгота 14.13 высота над уровнем моря 649 м.

В архиве по умолчанию представлена погода в Айген-им-Энсталь за последнюю неделю. Архивные данные за месяц целиком и за предыдущие месяцы, начиная с января 2011 года, Вы можете получить, выбрав интересующий диапазон дат из раскрывающегося списка и нажав кнопку "Ввод!".


*Определитесь, кто Вы:
робот инопланетянин человек

Внимание! Время в таблицах - всемирное. Для получения местного времени необходимо прибавить поправку, которая равна 1 ч.

Смотрите также архив погоды в соседних городах и на ближайших метеорологических станциях:

Погода в Бад-Миттерндорфе (Австрия) (15 км)
Погода в Грёбминге (Австрия) (19 км)
Погода в Виндишгарстене (Австрия) (27 км)
Погода в Бад-Аусзе (Австрия) (28 км)
Погода в Рамзау (Австрия) (39 км)
Погода в Бад-Гойзерне (Австрия) (40 км)
Погода в Фойеркогеле (Австрия) (45 км)
Погода в Мурау (Австрия) (46 км)
Погода в Гмундене (Австрия) (48 км)
Погода в Кальванге (Австрия) (49 км)

Пояснения к столбцам:

Ветер - указаны скорость ветра в м/с - средняя за 10 мин, порывы в срок и между сроками (в фигурных скобках) и направление, откуда дует ветер: С - северный, СВ - северо-восточный, В - восточный, ЮВ - юго-восточный, Ю - южный, ЮЗ - юго-западный, З - западный, СЗ - северо-западный.
Видимость - горизонтальная дальность видимости в метрах или километрах. При видимости от 1 до 10 км при отсутствии осадков обычно наблюдается дымка, при ухудшении видимости до 1 км и менее - туман. В сухую погоду видимость может ухудшаться дымом, пылью или мглою.
Явления - указаны атмосферные явления, наблюдавшиеся в срок или в последний час перед сроком; фигурными скобками обозначены явления, наблюдавшиеся между сроками (за 1-3 часа до срока); квадратными скобками обозначены град или гололедные отложения с указанием их диаметра в мм.
Облачность - указаны через наклонную черту общая и нижняя облачность в баллах и высота нижней границы облаков в метрах; квадратными скобками обозначены формы облаков: Ci - перистые, Cs - перисто-слоистые, Cc - перисто-кучевые, Ac - высококучевые, As - высокослоистые, Sc - слоисто-кучевые, Ns - слоисто-дождевые, Cu - кучевые, Cb - кучево-дождевые. Подробнее классификацию облаков см. в Атласе облаков (PDF).
T - Температура воздуха - температура, измеренная на высоте 2 м над землей.
Td - Температура точки росы - температура, при понижении до которой содержащийся в воздухе водяной пар достигнет насыщения.
f - Относительная влажность воздуха - влажноcть воздуха, измеренная на высоте 2 м над землей.
Te - Эффективная температура - температура, которую ощущает одетый по сезону человек в тени. Характеристика душности погоды. При расчете учитывается влияние влажности воздуха и скорости ветра на теплоощущения человека.
Tes - Эффективная температура на солнце - температура, которую ощущает человек, с поправкой на солнечный нагрев. Характеристика знойности погоды. Зависит от высоты солнца над горизонтом, облачности и скорости ветра. Ночью, в пасмурную погоду, а также при ветре 12 м/с и более поправка равна нулю.
P - Атмосферное давление - приведенное к уровню моря атмосферное давление.
Po - Атмосферное давление - измеренное на уровне метеостанции атмосферное давление.
Tmin - Минимальная температура - минимум температуры воздуха на высоте 2 м над землей.
Tmax - Максимальная температура - максимум температуры воздуха на высоте 2 м над землей.
R - Количество осадков - Количество выпавших осадков за период времени, мм. При наведении курсора мыши на число - период времени, за который выпало указанное количество осадков.
R24 - Количество осадков - Количество выпавших осадков за 24 часа, мм.
S - Снежный покров - Высота снежного покрова, см. При наведении курсора мыши на число - состояние снежного покрова и степень покрытия местности в баллах.